Location: *
(33.8649°S, 62.1526°E)
Time: 15:55:50
(UTC+00:00)

Meteor 2-1 Rocket - Pass Details

Date: 17 January 2021
Orbit: 827 x 910 km, 81.3° (Epoch: 04 March)

Event Time Altitude Azimuth Distance (km) Brightness Sun altitude
Rises 15:58:26 0° 350° (N) 3,355 7.1 -10.5°
Reaches altitude 10° 16:00:48 10° 348° (NNW) 2,434 6.4 -11.0°
Maximum altitude 16:06:19 78° 262° (W) 867 4.4 -11.9°
Drops below altitude 10° 16:11:59 10° 175° (S) 2,503 7.1 -12.9°
Sets 16:14:28 0° 173° (S) 3,458 7.8 -13.3°
